EN

Hourly Weather São Luís

Today, 19 October, Monday

Time Temperature Precipitation Wind Pressure Humidity
00:00 +28°C° 0 mm 6 mps 757 mmHg 80%
01:00 +28°C° 0 mm 6 mps 756 mmHg 81%
02:00 +28°C° 0 mm 5 mps 756 mmHg 83%
03:00 +28°C° 0 mm 5 mps 755 mmHg 79%
04:00 +28°C° 0 mm 5 mps 756 mmHg 81%
05:00 +28°C° 0 mm 5 mps 756 mmHg 82%
06:00 +28°C° 0 mm 5 mps 756 mmHg 84%
07:00 +29°C° 0.2 mm 6 mps 757 mmHg 79%
08:00 +30°C° 0.2 mm 6 mps 758 mmHg 74%
09:00 +32°C° 0.2 mm 6 mps 758 mmHg 69%
10:00 +32°C° 0.6 mm 6 mps 758 mmHg 66%
11:00 +33°C° 0.6 mm 6 mps 757 mmHg 62%
12:00 +34°C° 0.6 mm 6 mps 757 mmHg 59%
13:00 +34°C° 0.2 mm 6 mps 756 mmHg 59%
14:00 +34°C° 0.2 mm 6 mps 756 mmHg 59%
15:00 +34°C° 0.2 mm 6 mps 755 mmHg 59%
16:00 +33°C° 0 mm 6 mps 755 mmHg 64%
17:00 +32°C° 0 mm 6 mps 755 mmHg 69%
18:00 +29°C° 0 mm 6 mps 755 mmHg 75%
19:00 +29°C° 0 mm 6 mps 756 mmHg 77%
20:00 +29°C° 0 mm 6 mps 756 mmHg 79%
21:00 +29°C° 0 mm 6 mps 757 mmHg 82%
22:00 +29°C° 0 mm 6 mps 757 mmHg 81%
23:00 +29°C° 0 mm 6 mps 757 mmHg 80%

Tomorrow, 20 October, Tuesday

Time Temperature Precipitation Wind Pressure Humidity
00:00 +29°C° 0 mm 6 mps 757 mmHg 79%
01:00 +28°C° 0 mm 6 mps 756 mmHg 79%
02:00 +28°C° 0 mm 6 mps 756 mmHg 79%
03:00 +28°C° 0 mm 6 mps 755 mmHg 79%
04:00 +28°C° 0 mm 6 mps 756 mmHg 78%
05:00 +28°C° 0 mm 6 mps 756 mmHg 78%
06:00 +28°C° 0 mm 6 mps 757 mmHg 77%
07:00 +29°C° 0 mm 6 mps 758 mmHg 74%
08:00 +30°C° 0 mm 6 mps 758 mmHg 72%
09:00 +30°C° 0 mm 7 mps 759 mmHg 69%
10:00 +32°C° 0.1 mm 6 mps 758 mmHg 66%
11:00 +33°C° 0.1 mm 6 mps 758 mmHg 63%
12:00 +34°C° 0.1 mm 6 mps 758 mmHg 59%
13:00 +34°C° 0 mm 7 mps 757 mmHg 58%
14:00 +34°C° 0 mm 7 mps 756 mmHg 58%
15:00 +34°C° 0 mm 8 mps 756 mmHg 57%
16:00 +33°C° 0 mm 8 mps 756 mmHg 62%
17:00 +30°C° 0 mm 7 mps 756 mmHg 67%
18:00 +29°C° 0 mm 7 mps 756 mmHg 72%
19:00 +29°C° 0 mm 7 mps 757 mmHg 74%
20:00 +29°C° 0 mm 7 mps 757 mmHg 76%
21:00 +29°C° 0 mm 7 mps 758 mmHg 77%
22:00 +29°C° 0 mm 7 mps 757 mmHg 77%
23:00 +29°C° 0 mm 7 mps 757 mmHg 78%

Day after tomorrow, 21 October, Wednesday

Time Temperature Precipitation Wind Pressure Humidity
00:00 +29°C° 0 mm 7 mps 757 mmHg 78%
01:00 +28°C° 0 mm 7 mps 757 mmHg 78%
02:00 +28°C° 0 mm 6 mps 757 mmHg 78%
03:00 +28°C° 0 mm 6 mps 756 mmHg 78%
04:00 +28°C° 0 mm 6 mps 757 mmHg 78%
05:00 +28°C° 0 mm 6 mps 757 mmHg 77%
06:00 +28°C° 0 mm 6 mps 757 mmHg 77%
07:00 +29°C° 0 mm 6 mps 758 mmHg 73%
08:00 +30°C° 0 mm 6 mps 759 mmHg 70%
09:00 +32°C° 0 mm 7 mps 759 mmHg 66%
10:00 +32°C° 0 mm 6 mps 759 mmHg 63%
11:00 +33°C° 0 mm 6 mps 758 mmHg 60%
12:00 +34°C° 0 mm 6 mps 758 mmHg 57%
13:00 +34°C° 0 mm 7 mps 757 mmHg 56%
14:00 +34°C° 0 mm 7 mps 757 mmHg 54%
15:00 +34°C° 0 mm 7 mps 756 mmHg 52%
16:00 +33°C° 0 mm 7 mps 756 mmHg 59%
17:00 +30°C° 0 mm 6 mps 756 mmHg 66%
18:00 +29°C° 0 mm 6 mps 757 mmHg 74%
19:00 +28°C° 0 mm 5 mps 757 mmHg 78%
20:00 +27°C° 0 mm 5 mps 757 mmHg 82%
21:00 +27°C° 0 mm 4 mps 758 mmHg 86%
22:00 +27°C° 0 mm 5 mps 758 mmHg 86%
23:00 +27°C° 0 mm 5 mps 758 mmHg 86%

22 October, Thursday

Time Temperature Precipitation Wind Pressure Humidity
00:00 +27°C° 0 mm 5 mps 757 mmHg 86%
01:00 +27°C° 0 mm 5 mps 757 mmHg 86%
02:00 +27°C° 0 mm 5 mps 756 mmHg 87%
03:00 +27°C° 0 mm 5 mps 756 mmHg 87%
04:00 +27°C° 0 mm 5 mps 756 mmHg 86%
05:00 +27°C° 0 mm 5 mps 757 mmHg 85%
06:00 +27°C° 0 mm 5 mps 757 mmHg 84%
07:00 +28°C° 0.1 mm 5 mps 757 mmHg 80%
08:00 +29°C° 0.1 mm 5 mps 758 mmHg 77%
09:00 +30°C° 0.1 mm 5 mps 759 mmHg 73%
10:00 +32°C° 0.1 mm 5 mps 758 mmHg 69%
11:00 +33°C° 0.1 mm 5 mps 758 mmHg 65%
12:00 +34°C° 0.1 mm 5 mps 757 mmHg 61%
13:00 +34°C° 0 mm 6 mps 756 mmHg 60%
14:00 +34°C° 0 mm 6 mps 756 mmHg 60%
15:00 +34°C° 0 mm 7 mps 755 mmHg 59%
16:00 +33°C° 0 mm 7 mps 756 mmHg 64%
17:00 +32°C° 0 mm 6 mps 756 mmHg 70%
18:00 +29°C° 0 mm 6 mps 756 mmHg 75%
19:00 +29°C° 0 mm 6 mps 757 mmHg 77%
20:00 +29°C° 0 mm 6 mps 757 mmHg 79%
21:00 +29°C° 0 mm 6 mps 758 mmHg 81%
22:00 +29°C° 0 mm 6 mps 758 mmHg 81%
23:00 +29°C° 0 mm 6 mps 757 mmHg 82%

23 October, Friday

Time Temperature Precipitation Wind Pressure Humidity
00:00 +29°C° 0 mm 6 mps 757 mmHg 82%
01:00 +29°C° 0 mm 6 mps 757 mmHg 81%
02:00 +29°C° 0 mm 6 mps 756 mmHg 80%
03:00 +29°C° 0 mm 6 mps 756 mmHg 79%
04:00 +29°C° 0 mm 6 mps 756 mmHg 79%
05:00 +29°C° 0 mm 6 mps 756 mmHg 80%
06:00 +29°C° 0 mm 5 mps 757 mmHg 80%
07:00 +30°C° 0.1 mm 6 mps 757 mmHg 75%
08:00 +32°C° 0.1 mm 6 mps 758 mmHg 70%
09:00 +33°C° 0.1 mm 6 mps 759 mmHg 64%
10:00 +33°C° 0.1 mm 7 mps 758 mmHg 62%
11:00 +34°C° 0.1 mm 7 mps 758 mmHg 61%
12:00 +34°C° 0.1 mm 7 mps 757 mmHg 59%
13:00 +34°C° 0.1 mm 7 mps 757 mmHg 61%
14:00 +33°C° 0.1 mm 7 mps 756 mmHg 63%
15:00 +33°C° 0.1 mm 7 mps 756 mmHg 65%
16:00 +32°C° 0 mm 6 mps 756 mmHg 68%
17:00 +30°C° 0 mm 6 mps 756 mmHg 72%
18:00 +30°C° 0 mm 6 mps 756 mmHg 75%
19:00 +29°C° 0 mm 6 mps 757 mmHg 78%
20:00 +29°C° 0 mm 6 mps 757 mmHg 81%
21:00 +28°C° 0 mm 5 mps 758 mmHg 84%
22:00 +28°C° 0.1 mm 6 mps 758 mmHg 82%
23:00 +28°C° 0.1 mm 6 mps 757 mmHg 81%

24 October, Saturday

Time Temperature Precipitation Wind Pressure Humidity
00:00 +28°C° 0.1 mm 6 mps 757 mmHg 80%
01:00 +28°C° 0 mm 6 mps 757 mmHg 80%
02:00 +28°C° 0 mm 6 mps 756 mmHg 80%
03:00 +28°C° 0 mm 6 mps 756 mmHg 79%
04:00 +28°C° 0 mm 6 mps 756 mmHg 79%
05:00 +28°C° 0 mm 6 mps 757 mmHg 79%
06:00 +28°C° 0 mm 6 mps 757 mmHg 78%
07:00 +29°C° 0 mm 6 mps 757 mmHg 73%
08:00 +30°C° 0 mm 6 mps 758 mmHg 69%
09:00 +32°C° 0 mm 6 mps 759 mmHg 64%
10:00 +33°C° 0 mm 6 mps 758 mmHg 62%
11:00 +33°C° 0 mm 6 mps 758 mmHg 60%
12:00 +34°C° 0 mm 6 mps 758 mmHg 57%
13:00 +34°C° 0 mm 6 mps 757 mmHg 57%
14:00 +34°C° 0 mm 6 mps 756 mmHg 57%
15:00 +34°C° 0 mm 6 mps 756 mmHg 57%
16:00 +33°C° 0 mm 6 mps 756 mmHg 63%
17:00 +30°C° 0 mm 6 mps 756 mmHg 68%
18:00 +29°C° 0 mm 5 mps 756 mmHg 74%
19:00 +29°C° 0 mm 5 mps 756 mmHg 77%
20:00 +28°C° 0 mm 5 mps 756 mmHg 80%
21:00 +28°C° 0 mm 5 mps 756 mmHg 83%
22:00 +28°C° 0 mm 5 mps 756 mmHg 83%
23:00 +28°C° 0 mm 6 mps 756 mmHg 82%

25 October, Sunday

Time Temperature Precipitation Wind Pressure Humidity
00:00 +28°C° 0 mm 6 mps 756 mmHg 82%
01:00 +28°C° 0 mm 6 mps 756 mmHg 82%
02:00 +28°C° 0 mm 5 mps 755 mmHg 82%
03:00 +28°C° 0 mm 5 mps 755 mmHg 82%
04:00 +28°C° 0 mm 5 mps 755 mmHg 81%
05:00 +28°C° 0 mm 5 mps 756 mmHg 81%
06:00 +28°C° 0 mm 5 mps 756 mmHg 80%
07:00 +29°C° 0 mm 5 mps 757 mmHg 75%
08:00 +30°C° 0 mm 5 mps 757 mmHg 69%
09:00 +32°C° 0 mm 5 mps 758 mmHg 64%
10:00 +33°C° 0 mm 6 mps 757 mmHg 62%
11:00 +33°C° 0 mm 6 mps 757 mmHg 61%
12:00 +34°C° 0 mm 6 mps 756 mmHg 59%
13:00 +34°C° 0 mm 6 mps 756 mmHg 59%
14:00 +34°C° 0 mm 6 mps 755 mmHg 59%
15:00 +34°C° 0 mm 7 mps 754 mmHg 59%
16:00 +33°C° 0 mm 6 mps 754 mmHg 64%
17:00 +30°C° 0 mm 6 mps 755 mmHg 69%
18:00 +29°C° 0 mm 6 mps 755 mmHg 74%
19:00 +29°C° 0 mm 5 mps 755 mmHg 77%
20:00 +28°C° 0 mm 5 mps 756 mmHg 81%
21:00 +28°C° 0 mm 5 mps 756 mmHg 85%
22:00 +28°C° 0 mm 5 mps 756 mmHg 85%
23:00 +28°C° 0 mm 5 mps 756 mmHg 85%
Show more